NOAA 16 DEB

Satellite information

Favourite Embed

Satellite Type and Status

DEBRISIN ORBIT

Key statistics

Satellite NOAA 16 DEB at a glance.

Uptime

9171

Days in orbit

Revolutions

≈ 14.6

Per day

Orbit

SSO

Sun Synchronous Orbit

Inclination

98.9

Latest

Satellite identification and parameters

Extended collection of information and parameters for NOAA 16 DEB.

Object identification

Identified? True

Debris? True

Object name: NOAA 16 DEB

International designator: 2000-055MU

Object number (NORAD): 41520

Object ID (CCSDS): 41520

Country: UNITED STATES OF AMERICA (US)

Current information (Y/N): Y

RCS size: SMALL

Orbital parameters

Period: 98.525 minutes

Inclination: 98.8743 deg

SMA: 7066.267 km

Apoapsis: 707.509 km

Periapsis: 668.755 km

RAAN: 71.543 deg

Eccentricy: 0.00274219

Argument of periapsis: 307.1858 deg

Mean anomaly: 52.6838 deg

Mean motion: 14.61563419 rev/day

Mean motion (dot): 0.00045349 rev/day2

B* drag term: 0.0090350227 1/REarth

Two-line elements (TLE)

Creation date: Oct. 31, 2025, 3 a.m.

Reference frame: TEME

Reference center: EARTH

Epoch: Oct. 30, 2025, 3:01 p.m. UTC

TLE line 0: 0 NOAA 16 DEB

TLE line 1: 1 41520U 00055MU 25303.62630560 .00045349 00000-0 90350-2 0 9997

TLE line 2: 2 41520 98.8743 71.5430 0027422 307.1858 52.6838 14.61563419493011

Live tracking on map

Real-time ground track for satellite NOAA 16 DEB.

In-orbit conjunctions

A list of the most updated potential collisions computed for object NOAA 16 DEB.

Target Orbit TCA Probability of collision Miss distance Type
CZ-6A DEB LEO 2025-01-22 19:27:11 0.0001150579 416.0 (m) DEBRIS
PICOSAT 6 SSO 2024-12-30 12:00:05 0.0001361276 409.0 (m) PAYLOAD

Associated space launch

The NOAA K, L and M POES satellites begin the fifth generation of improved environmental monitoring in support of NOAA missions. The instrument payload has significant improvements and additions/deletions. The instrument changes have effected the spacecraft subsystems and data formats.

NOAA 16 DEB was lifted into orbit during the mission ‘Titan II SLV | NOAA 16’, on board a Titan II SLV space rocket.

The launch took place on Sept. 21, 2000, 10:22 a.m. from Space Launch Complex 4W.

For more information about the launch, click the button.

Launch to space Titan II SLV | NOAA 16
Titan II SLV | NOAA 16

Agency: N/A

Status: Launch Successful

Launch date: Sept. 21, 2000, 10:22 a.m. UTC

Rocket: Titan II SLV

Launch pad: Space Launch Complex 4W

Location: Vandenberg SFB, CA, USA

...

Latest news about this satellite

There are no fresh news available about this satellite. Check back as we update our databases every day.


Newsletter sign-up

Weekly statistics, charts and insights to help you stay on top of the space industry.